{"data":{"norad_id":54818,"intl_designator":"2022-176A","name":"GAOFEN-11 04","alt_names":[],"object_type":"PAYLOAD","status":"ACTIVE","operator":null,"country":"PRC","launch_date":"2022-12-27","launch_site_code":"TAISC","launch_vehicle":null,"mission":null,"orbit_class":"UNKNOWN","rcs_meters":null,"size_class":null,"mass_kg":null,"dimensions":null,"purposes":[],"wikipedia_slug":null,"has_3d_model":false,"image_url":null,"decayed_at":null,"tle_current":{"epoch":"2026-09-21T22:17:40.235424Z","epoch_age_seconds":41358,"freshness":"FRESH","line1":"1 54818U 22176A   26264.92893791  .00003747  00000+0  15895-3 0  9993","line2":"2 54818  97.4356  37.1593 0006980 356.1486   3.9696 15.23710387207982","mean_motion":15.23710387,"eccentricity":0.000698,"inclination_deg":97.4356,"raan_deg":37.1593,"arg_perigee_deg":356.1486,"mean_anomaly_deg":3.9696,"bstar":0.00015895,"rev_number":20798,"period_min":94.506148431211,"perigee_km":489.86341176271,"apogee_km":499.45783724652,"semimajor_km":6872.7976245046,"source":"CELESTRAK","updated_at":"2026-09-22T09:00:25.228575Z"}}}